This is the latest recevied weather packets stored in our database for station/object NE1CU. If no packets are shown the sender has not sent any weather packets the latest 10 day(s).
| Time | Temp. | Humidity | Pressure | Rain* | Wind** | Luminosity | Snow |
|---|---|---|---|---|---|---|---|
| 1778077423 | 17.22° C | 75% | 1010.3 hPa | 0 mm | - | 185 W/m² | - |
| 1778077121 | 17.22° C | 74% | 1010.1 hPa | 0 mm | - | 268 W/m² | - |
| 1778076819 | 17.22° C | 74% | 1010.3 hPa | 0 mm | - | 263 W/m² | - |
| 1778076516 | 17.78° C | 72% | 1010 hPa | 0 mm | - | 345 W/m² | - |
| 1778076213 | 17.22° C | 75% | 1010.1 hPa | 0 mm | - | 552 W/m² | - |
| 1778075910 | 17.22° C | 76% | 1010.2 hPa | 0 mm | - | 574 W/m² | - |
| 1778075607 | 17.22° C | 75% | 1010.3 hPa | 0 mm | - | 323 W/m² | - |
| 1778075303 | 17.22° C | 75% | 1010.4 hPa | 0 mm | - | 319 W/m² | - |
| 1778075000 | 16.67° C | 75% | 1010.5 hPa | 0 mm | - | 313 W/m² | - |
| 1778074697 | 17.22° C | 75% | 1010.1 hPa | 0 mm | - | 275 W/m² | - |
| 1778074393 | 17.22° C | 75% | 1010.2 hPa | 0 mm | - | 290 W/m² | - |
| 1778074090 | 16.67° C | 76% | 1010.1 hPa | 0 mm | - | 354 W/m² | - |
| 1778073788 | 16.67° C | 77% | 1009.8 hPa | 0 mm | - | 292 W/m² | - |
| 1778073486 | 16.67° C | 76% | 1009.9 hPa | 0 mm | - | 207 W/m² | - |
| 1778073181 | 16.67° C | 76% | 1010 hPa | 0 mm | - | 199 W/m² | - |
| 1778072878 | 16.67° C | 76% | 1009.9 hPa | 0 mm | - | 214 W/m² | - |
| 1778072575 | 16.67° C | 77% | 1010 hPa | 0 mm | - | 225 W/m² | - |
| 1778072273 | 16.67° C | 76% | 1009.9 hPa | 0 mm | - | 197 W/m² | - |
| 1778071971 | 16.67° C | 75% | 1010 hPa | 0 mm | - | 191 W/m² | - |
| 1778071669 | 17.22° C | 75% | 1010 hPa | 0 mm | - | 228 W/m² | - |
| 1778071366 | 16.67° C | 76% | 1010.2 hPa | 0 mm | - | 233 W/m² | - |
| 1778071064 | 17.22° C | 75% | 1010.3 hPa | 0 mm | - | 206 W/m² | - |
| 1778070762 | 17.22° C | 76% | 1010.3 hPa | 0 mm | - | 325 W/m² | - |
| 1778070458 | 16.67° C | 77% | 1010.5 hPa | 0 mm | - | 462 W/m² | - |
| 1778070156 | 16.67° C | 77% | 1010.6 hPa | 0 mm | - | 250 W/m² | - |
* Rain latest hour (hover to see other rain measurements)
** Current wind speed in m/s (hover to see current wind gust speed)